Location: Newark
(5.0949°S, 42.8042°W)
Time: 06:15:41
(UTC+00:00)

Hubble Space Telescope - Pass Details

Date: 24 September 2019
Orbit: 536 x 540 km, 28.5° (Epoch: 17 October)

Event Time Altitude Azimuth Distance (km) Brightness Sun altitude
Rises 22:21:06 0° 269° (W) 2,675 5.8 -24.3°
Reaches altitude 10° 22:24:06 10° 292° (WNW) 1,781 4.3 -25.1°
Maximum altitude 22:26:38 16° 330° (NNW) 1,446 3.2 -25.7°
Enters shadow 22:27:27 15° 344° (NNW) 1,483 3.1 -25.9°
